Dewpoint
21 18 17 15 15 12 10 9 9 13 17 13 15 14 14 15 15 13 16 20 36 49 47 48 52 53 53 54 57 59 62 63 65 66 65 64 63 65 64 66 66 64 65 65
22 20 20 19 18 16 15 13 12 15 14 13 13 13 15 16 16 16 16 17 20 44 49 49 53 54 54 56 56 58 61 63 63 65 65 65 64 65 65 66 65 64 65 64
20 21 23 21 19 17 15 16 13 14 17 17 17 15 15 16 19 18 19 19 19 25 45 50 53 54 56 55 57 57 62 64 64 66 66 67 67 66 65 64 64 65 65 65
17 20 21 18 18 16 17 13 15 17 17 13 17 12 15 17 18 17 17 18 19 31 42 51 50 55 57 58 60 62 66 69 67 67 66 67 66 65 64 65 64 65 65 64
13 14 15 14 14 19 15 19 20 24 16 16 15 15 15 17 16 19 32 27 32 37 52 53 51 58 65 68 69 70 72 70 70 70 68 67 65 65 65 64 63 63 63 62
17 18 17 14 15 20 23 21 19 20 17 15 16 17 17 17 15 25 33 47 56 59 61 62 63 63 65 67 69 69 71 71 71 70 69 67 66 65 64 63 63 62 61 60
21 20 19 16 17 15 16 19 17 14 18 15 18 19 19 27 29 28 33 40 48 49 60 62 63 63 64 65 67 68 69 69 69 68 68 67 67 66 64 63 62 61 60 58
18 17 22 22 13 11 16 18 19 13 17 16 20 18 21 32 34 32 31 32 36 49 59 61 62 62 63 65 68 68 68 67 68 68 68 68 67 65 63 62 62 62 61 58
20 20 25 24 17 14 15 14 19 18 21 15 17 23 29 29 34 33 31 30 41 46 56 59 60 62 62 66 67 67 67 66 66 67 67 66 66 65 63 59 57 59 57 56
27 22 27 25 23 20 15 16 10 17 17 16 20 22 26 29 32 39 35 30 35 49 56 59 60 61 62 64 67 67 67 66 66 66 66 65 63 61 57 55 54 56 53 52
33 26 24 25 22 26 26 23 16 16 24 18 16 17 35 29 36 37 39 39 35 39 57 59 60 60 61 66 66 66 65 65 65 65 64 59 58 57 56 56 54 51 51 50
34 31 28 27 29 29 27 25 24 22 19 24 22 21 29 33 36 36 34 35 37 36 40 58 59 59 65 65 65 65 64 64 64 64 60 58 57 56 55 55 53 53 53 52
30 31 31 28 26 32 27 28 28 29 30 25 22 24 28 37 36 36 36 35 44 53 54 56 59 59 63 65 65 65 64 63 63 62 58 57 56 56 56 55 54 54 53 52
40 35 33 31 31 32 28 29 27 26 25 27 28 29 30 29 32 37 40 51 53 54 55 56 57 59 62 64 65 64 63 63 62 59 58 57 55 56 55 55 55 54 53 52
31 24 30 30 31 32 30 28 28 26 25 21 21 22 27 28 45 50 52 52 53 54 54 56 58 59 62 62 64 63 63 61 59 58 57 56 56 56 56 56 55 54 53 53
38 30 34 31 33 32 29 27 29 27 25 23 22 23 26 47 46 46 47 47 44 47 54 56 56 59 62 62 63 62 61 59 58 57 58 58 56 56 57 56 54 53 53 52
36 35 34 31 32 29 26 25 26 26 29 31 26 34 37 41 41 42 42 42 41 42 45 54 57 59 61 62 62 61 60 60 59 58 58 57 57 57 57 56 54 54 53 49
31 33 34 32 27 24 25 29 27 29 38 40 44 44 41 40 41 42 43 42 41 43 46 55 60 63 62 61 61 61 61 60 59 58 58 58 58 58 57 55 54 51 48 49
32 33 29 26 27 27 28 29 30 30 35 41 45 45 42 45 44 41 45 44 44 46 45 62 63 61 59 59 59 60 59 58 58 57 58 59 58 56 56 54 49 50 49 49
33 33 29 29 26 24 30 33 37 34 40 41 39 45 44 42 40 44 48 47 43 43 45 61 61 59 58 57 58 57 57 57 58 58 59 58 57 55 50 49 48 49 48 48
31 33 28 28 27 29 33 37 39 30 35 42 41 43 40 40 43 42 42 41 41 43 52 61 59 58 57 57 58 58 58 57 59 58 56 51 47 49 49 48 47 48 46 45
28 29 31 31 29 26 37 34 37 40 42 37 34 35 36 35 35 36 41 40 42 42 47 53 58 58 58 57 57 58 58 59 57 55 51 48 47 48 47 46 45 44 44 45
26 31 30 31 33 37 35 37 41 41 38 39 35 35 35 34 34 35 36 35 38 42 45 49 57 57 57 57 57 56 58 57 54 50 48 48 47 45 44 43 44 45 46 44
30 32 28 29 32 31 33 35 37 36 36 40 37 39 38 34 35 34 33 34 37 41 44 47 54 57 57 57 57 56 56 56 52 49 47 46 45 43 42 44 45 46 42 40
29 29 27 28 29 32 34 34 35 35 36 36 35 35 34 34 33 34 34 36 40 42 43 48 50 53 56 56 56 55 55 53 49 48 47 47 47 45 44 38 39 38 39 39
28 26 26 25 29 32 33 32 33 34 35 36 36 35 36 35 35 35 35 36 39 41 44 48 54 56 55 56 55 54 54 52 51 47 47 45 37 40 42 38 37 38 38 38
Lifted_Index
6 6 5 5 5 4 4 4 4 4 3 2 2 3 3 2 1 0 0 0 -0 -2 -4 -4 -4 -3 -3 -2 -2 -2 -3 -4 -5 -5 -5 -4 -4 -4 -4 -5 -5 -4 -4 -4
6 5 5 5 5 4 4 4 4 3 3 2 2 2 2 1 1 1 1 1 0 -1 -3 -4 -4 -4 -3 -3 -2 -3 -3 -4 -5 -5 -5 -5 -4 -4 -5 -5 -5 -5 -4 -4
5 5 5 5 5 4 4 4 3 3 3 3 2 2 1 1 1 1 1 1 1 -0 -2 -3 -4 -4 -4 -3 -3 -3 -4 -5 -5 -5 -5 -5 -5 -5 -5 -5 -5 -5 -4 -4
4 4 4 4 4 4 4 4 4 4 3 2 2 1 1 1 0 0 1 1 1 0 -1 -2 -3 -4 -4 -4 -4 -4 -5 -6 -6 -6 -6 -6 -6 -6 -6 -6 -5 -5 -4 -4
4 4 4 4 3 3 3 4 4 4 3 2 1 1 1 1 1 0 0 -0 -1 -1 -2 -3 -4 -4 -5 -6 -6 -7 -7 -8 -7 -7 -7 -7 -7 -7 -6 -6 -5 -5 -4 -4
3 3 3 3 3 3 3 3 3 3 2 1 1 1 1 1 1 1 -0 -1 -2 -3 -5 -5 -5 -5 -6 -7 -8 -8 -9 -9 -9 -8 -8 -8 -8 -7 -7 -6 -5 -5 -5 -4
3 3 3 3 3 3 3 2 2 2 1 1 1 1 1 1 1 1 -0 -1 -2 -4 -6 -6 -7 -7 -7 -7 -8 -8 -9 -9 -9 -9 -8 -8 -8 -8 -7 -6 -6 -5 -5 -5
3 3 3 3 3 3 3 2 2 1 1 1 1 1 1 1 1 1 1 -0 -1 -3 -5 -7 -7 -7 -7 -7 -8 -8 -8 -8 -8 -8 -8 -8 -8 -7 -7 -6 -6 -5 -5 -5
3 2 2 3 3 3 2 2 2 1 1 1 1 1 1 1 1 1 1 1 0 -2 -5 -7 -7 -7 -7 -8 -8 -8 -8 -8 -7 -7 -7 -7 -7 -7 -6 -6 -6 -6 -5 -5
4 3 2 2 3 2 2 2 2 1 1 1 1 1 1 1 1 1 1 1 1 -1 -4 -7 -7 -7 -7 -8 -8 -8 -8 -8 -7 -6 -6 -6 -7 -6 -6 -6 -6 -5 -4 -4
4 4 3 2 2 2 2 2 2 1 1 1 1 1 1 1 1 1 1 1 1 -1 -3 -6 -7 -7 -8 -8 -8 -8 -8 -7 -7 -6 -6 -6 -6 -6 -6 -5 -5 -4 -2 -1
5 4 3 3 3 2 2 2 2 1 1 1 1 1 1 1 1 1 1 1 -0 -1 -3 -5 -6 -7 -7 -7 -7 -7 -7 -7 -7 -6 -6 -6 -6 -6 -5 -5 -4 -2 -0 1
5 5 4 3 3 3 2 2 1 1 1 1 1 1 1 1 1 2 1 -0 -2 -2 -3 -4 -6 -6 -6 -7 -7 -7 -7 -7 -6 -6 -6 -6 -5 -5 -4 -3 -1 0 2 2
5 5 4 3 3 3 3 2 1 1 1 1 1 1 1 1 1 1 0 -2 -3 -3 -3 -4 -5 -5 -6 -6 -7 -7 -7 -7 -6 -6 -5 -5 -4 -3 -1 -0 1 2 3 3
5 5 4 4 4 4 3 3 2 1 1 1 1 1 1 1 -0 -1 -1 -2 -3 -3 -3 -3 -4 -5 -6 -6 -7 -7 -7 -6 -6 -5 -5 -4 -3 -1 1 1 2 2 3 4
5 5 5 4 4 4 4 3 3 2 2 2 2 2 1 0 -1 -1 -2 -2 -2 -2 -2 -3 -4 -5 -6 -6 -7 -6 -5 -5 -5 -4 -4 -3 -2 -0 1 1 2 2 3 3
5 5 5 5 4 4 4 4 4 4 3 2 1 1 1 1 -0 -1 -1 -2 -2 -2 -2 -3 -4 -5 -6 -7 -6 -5 -3 -3 -3 -4 -3 -2 -1 0 1 1 2 3 3 4
5 5 5 5 5 4 4 5 4 4 3 1 1 0 0 0 0 -1 -1 -1 -1 -1 -2 -4 -5 -6 -7 -7 -6 -5 -3 -2 -3 -3 -3 -2 -1 0 1 2 2 3 4 5
5 5 5 5 4 5 5 5 4 3 2 1 1 0 0 -0 -0 -1 -1 -0 -1 -1 -2 -4 -6 -6 -6 -6 -6 -5 -4 -3 -3 -3 -2 -2 -0 1 1 2 3 5 6 6
5 5 5 5 4 5 5 5 4 3 2 2 2 1 1 0 -0 -0 0 1 1 -0 -2 -4 -6 -6 -5 -5 -5 -4 -4 -3 -3 -2 -2 -1 0 1 2 3 5 6 7 8
5 5 5 5 5 5 5 4 3 3 2 2 2 2 2 1 1 1 2 2 3 2 -1 -3 -5 -5 -5 -4 -4 -3 -3 -2 -2 -1 -1 0 1 1 3 5 6 8 8 8
5 5 5 5 5 5 5 4 3 3 2 2 2 3 3 2 2 2 3 3 4 3 2 -1 -3 -4 -4 -4 -4 -3 -2 -1 -1 -0 0 1 1 3 5 7 8 8 8 8
5 5 5 5 4 4 4 4 4 4 3 2 3 3 3 3 3 3 3 4 4 4 3 2 -1 -3 -4 -4 -3 -3 -2 -1 -0 0 0 1 3 5 7 8 8 8 7 7
5 5 5 5 5 4 4 4 4 4 4 4 4 4 3 3 4 4 4 4 4 4 3 3 0 -2 -3 -3 -3 -3 -2 -1 -0 0 1 3 5 7 8 8 8 8 8 8
5 6 6 6 6 5 5 4 4 4 4 4 4 4 4 4 5 5 5 4 4 4 4 3 1 -1 -2 -3 -3 -3 -2 -2 -1 0 2 5 7 8 8 9 9 9 9 9
6 6 7 7 7 6 6 5 4 4 4 4 4 5 5 5 5 5 5 5 4 4 4 3 1 -1 -2 -3 -3 -3 -2 -2 -1 1 4 7 9 9 9 9 10 10 10 10